+ View the NASA Portal
+ Center for Near-Earth Object Studies
IMPORTANT:
The SSD Announcement email list is now available. Major changes are coming in the near future, including possible hostname and/or URL changes. To be notified of such changes, subscribe to this email list.
Please visit
this page
for more details.
Don't show this message again
JPL Small-Body Database Browser
Search:
[
help
]
413607 (2005 UK212)
Classification:
Main-belt Asteroid
SPK-ID:
2413607
[
Ephemeris
|
Orbit Diagram
|
Orbital Elements
|
Mission Design
|
Physical Parameters
|
Discovery Circumstances
]
[ show orbit diagram ]
Orbital Elements at Epoch 2458600.5 (2019-Apr-27.0) TDB
Reference:
JPL 9
(heliocentric ecliptic J2000)
Element
Value
Uncertainty (1-sigma)
Units
e
.07399930585460274
6.1231e-08
a
2.794363169040352
2.854e-08
au
q
2.587582234225698
1.7893e-07
au
i
6.930868533091652
7.9254e-06
deg
node
62.30551939730498
5.3812e-05
deg
peri
276.282643554291
8.0403e-05
deg
M
23.18516547949866
5.5831e-05
deg
t
p
2458490.617027622684
(2019-Jan-07.11702762)
0.00026488
TDB
period
1706.171564348442
4.67
2.6139e-05
7.156e-08
d
yr
n
.210998710518
3.2326e-09
deg/d
Q
3.001144103855006
3.0652e-08
au
Orbit Determination Parameters
# obs. used (total)
98
data-arc span
6494 days (17.78 yr)
first obs. used
2002-01-14
last obs. used
2019-10-26
planetary ephem.
DE431
SB-pert. ephem.
SB431-N16
condition code
0
norm. resid. RMS
.55189
source
ORB
producer
Otto Matic
solution date
2019-Nov-08 14:37:37
Additional Information
Earth MOID
= 1.58949 au
Jupiter MOID
= 2.27688 au
T_jup
= 3.313
[ show covariance matrix ]
[
Ephemeris
|
Orbit Diagram
|
Orbital Elements
|
Mission Design
|
Physical Parameters
|
Discovery Circumstances
]
Physical Parameter Table
Parameter
Symbol
Value
Units
Sigma
Reference
Notes
absolute magnitude
H
16.9
n/a
MPO455945
413607 (2005 UK212)
Discovered 2005-Oct-27 by Spacewatch at Kitt Peak
Reference:
Last Updated:
2014-11-10
[
Ephemeris
|
Orbit Diagram
|
Orbital Elements
|
Mission Design
|
Physical Parameters
|
Discovery Circumstances
]
2019-Dec-05 15:54 UT
(server date/time)
Site Manager:
Ryan S. Park
Webmaster
:
Alan B. Chamberlin